EUTE 16A (EUTE W3C)

导读 | 豆包AI

Eutelsat 16A(原命名Eutelsat W3C),由欧洲卫星公司Eutelsat发射,于2011年10月7日升空,定轨于东经16°位置。卫星覆盖非洲、欧洲及中东地区,主要提供数字广播、数据通信与政务服务。它通过KU波段波束为撒哈拉以南非洲提供高速宽带接入,支持IP电话、卫星电视和中小企业网络服务,极大缩小了非洲宽带基建鸿沟,支撑非洲数字服务发展,是Eutelsat拓展非洲市场的核心资源。

基本信息
目录编号:
37836
目录名称:
EUTE 16A (EUTE W3C)
国际标识:
2011-057A
轨道中心:
EARTH
卫星名称:
EUTE 16A (EUTE W3C)
卫星全名:
--
卫星状态:
在轨 (已飞行5320 天)
发射日期:
2011-10-07 UTC
国别 :
(EUTE)
星等 :
--
轨道信息
数据来源 国际轨道数据 AOE轨道数据
星历时间 2026-05-01T06:01:43+0800
6小时前
查看轨道信息
2026-05-01T03:00:00+0800
9小时前
查看轨道信息
半长轴 42164.56km 42164.756km
偏心率 0.0005748 0.0005704
轨道倾角 0.059° 0.057°
近地点辐角 24.780° 20.428°
升交点赤经 20.744° 21.529°
平近点角 159.760° 117.768°
近地点 35762.186km 35762.568km
远地点 35810.66km 35810.67km
周期 1436.088分钟 1436.098分钟
每日圈数 1.002724 1.002717
详细信息
使用方式:
暂无
2D轨道图
3D轨道图
轨道高度分析图
轨道倾角分析图
轨道综合分析图
查看轨道综合分析图